CDT,Max TemperatureF,Mean TemperatureF,Min TemperatureF,Max Dew PointF,MeanDew PointF,Min DewpointF,Max Humidity, Mean Humidity, Min Humidity, Max Sea Level PressureIn, Mean Sea Level PressureIn, Min Sea Level PressureIn, Max VisibilityMiles, Mean VisibilityMiles, Min VisibilityMiles, Max Wind SpeedMPH, Mean Wind SpeedMPH, Max Gust SpeedMPH,PrecipitationIn, CloudCover, Events, WindDirDegrees
2012-9-1,81,70,60,55,50,44,81,51,28,30.14,30.09,30.04,10,10,10,15,7,22,0.00,0,,73
2012-9-2,86,72,57,66,59,51,82,62,46,30.05,29.98,29.92,10,10,10,10,5,16,0.00,0,,122
2012-9-3,79,72,66,70,67,64,93,85,68,29.99,29.94,29.91,10,8,1,10,5,16,0.53,2,Rain-Thunderstorm,170
2012-9-4,90,75,60,71,64,59,96,76,43,29.94,29.87,29.78,10,7,0,13,3,22,0.09,2,Fog-Rain-Thunderstorm,182
2012-9-5,80,68,57,62,55,48,92,68,37,29.94,29.86,29.77,10,10,3,20,7,56,0.23,2,Rain-Thunderstorm,298
2012-9-6,77,64,52,53,47,42,76,54,29,30.02,29.96,29.89,10,10,10,8,5,,0.00,1,,279
2012-9-7,68,60,52,55,49,42,86,67,42,30.01,29.94,29.84,10,10,10,18,7,24,0.00,4,Rain-Thunderstorm,6
2012-9-8,76,60,45,46,43,40,88,60,27,30.03,29.95,29.79,10,10,10,23,10,34,0.00,1,,307
2012-9-9,70,58,47,50,46,43,93,65,37,30.19,30.13,30.01,10,10,10,12,7,17,0.00,0,,351
2012-9-10,77,63,49,49,46,44,82,55,31,30.16,30.07,29.95,10,10,10,22,10,31,0.00,0,,186
2012-9-11,88,73,58,51,48,41,72,46,20,29.98,29.93,29.87,10,10,7,26,15,37,0.00,0,,193
2012-9-12,70,60,50,54,49,43,93,67,49,30.29,30.12,29.95,10,10,7,16,9,22,0.30,5,Rain,343
2012-9-13,69,58,49,49,44,32,92,67,26,30.38,30.33,30.28,10,10,4,12,4,,0.09,2,Rain,261
2012-9-14,73,60,48,48,43,34,86,57,26,30.34,30.31,30.28,10,10,5,13,6,17,0.00,1,,179
2012-9-15,77,63,49,45,41,35,81,48,22,30.29,30.19,30.07,10,10,10,17,8,24,0.00,0,,210
2012-9-16,76,64,53,56,51,41,79,59,46,30.07,29.98,29.90,10,10,10,18,11,26,0.00,0,,214
2012-9-17,61,53,45,56,45,36,90,71,46,29.98,29.94,29.89,10,10,3,14,7,22,0.12,5,Rain,333
2012-9-18,58,48,39,37,32,24,87,56,28,30.02,29.99,29.96,10,10,10,16,6,24,0.00,4,,317
2012-9-19,74,60,46,44,36,31,62,44,23,29.95,29.81,29.69,10,10,10,24,12,36,0.00,3,,232
2012-9-20,63,52,41,37,32,28,72,48,26,29.93,29.91,29.87,10,10,10,22,10,33,0.00,1,,279
2012-9-21,63,54,43,47,40,32,89,64,43,29.90,29.85,29.80,10,10,5,14,7,23,0.05,6,Rain,264
2012-9-22,54,45,36,38,32,26,80,62,38,30.24,30.08,29.80,10,10,10,23,13,34,0.00,4,,326
2012-9-23,57,44,32,32,27,23,83,55,28,30.32,30.26,30.20,10,10,10,14,6,23,0.00,0,,300
2012-9-24,74,55,36,36,30,25,68,41,21,30.20,29.98,29.80,10,10,10,24,11,31,0.00,0,,227
2012-9-25,75,61,47,40,34,25,72,41,16,29.95,29.86,29.79,10,10,10,13,8,18,0.00,0,,321
2012-9-26,68,54,41,38,34,29,76,47,23,30.19,30.09,29.96,10,10,10,7,2,,0.00,0,,45
2012-9-27,69,54,40,40,34,29,79,47,23,30.28,30.22,30.18,10,10,7,8,2,,0.00,0,,139
2012-9-28,76,60,43,40,33,24,76,41,14,30.25,30.19,30.14,10,10,7,7,2,,0.00,0,,229
2012-9-29,82,68,54,38,33,27,50,31,15,30.14,30.08,30.02,10,10,10,13,6,20,0.00,0,,315
2012-9-30,75,62,50,42,36,27,64,41,17,30.04,29.98,29.94,10,10,5,7,3,,0.00,0,,73